#timestamp,LO_Frequency,Hit,StdDev 
1518048015.2,286047002.1,N
1518048035.0,286047001.5,N
1518048035.9,286047001.5,N
1518048055.8,286047004.4,Y
1518048075.4,286047000.1,P
1518048095.2,286046999.8,N
1518048115.1,286047001.9,P
1518048116.0,286047001.9,N
1518048135.8,286047001.5,N
1518048155.6,286047002.5,N
1518048175.5,286046999.9,N
1518048195.3,286047000.4,N
1518048215.2,286047000.7,N
1518048235.9,286046998.8,N
1518048255.7,286047000.9,N
1518048275.6,286046999.8,N
1518048295.4,286047000.3,N
1518048315.2,286047000.4,N
1518048335.1,286047002.8,N
1518048336.0,286047002.8,N
1518048355.8,286047002.7,N
1518048375.7,286047000.4,N
1518048395.5,286046998.4,N
1518048415.3,286046999.6,N
1518048435.2,286046998.8,N
1518048455.0,286046996.8,N
1518048455.9,286046996.8,N
1518048475.8,286046997.1,N
1518048495.6,286046999.5,N
1518048515.4,286046997.9,N
1518048535.3,286046998.0,N
1518048555.1,286046996.5,N
1518048575.8,286046999.5,N
1518048595.7,286046997.7,N
1518048615.5,286046995.3,N
1518048635.4,286046997.5,N
1518048655.2,286046997.6,N
1518048675.0,286046995.8,N
1518048675.9,286046995.8,N
1518048695.8,286046996.4,N
1518048715.6,286046993.8,Y
1518048735.5,286046996.4,P
1518048755.3,286046993.6,P
1518048775.1,286046995.5,N
1518048795.9,286046995.0,N
1518048815.7,286046997.3,N
1518048835.5,286046997.0,N
1518048855.4,286046996.7,N
1518048875.2,286046994.9,Y
1518048895.1,286046999.8,P
1518048896.0,286046999.8,N
1518048915.8,286046999.1,N
1518048935.6,286046998.4,N
1518048955.5,286046996.9,N
1518048975.3,286046996.8,N
1518048995.1,286046998.8,N
1518049015.9,286046996.8,N
1518049035.7,286046997.7,N
1518049055.6,286046999.5,N
1518049075.4,286046997.2,N
1518049095.2,286046995.8,Y
1518049115.1,286046999.6,P
1518049116.0,286046999.6,N
1518049135.8,286046997.0,P
1518049155.7,286046999.2,N
1518049175.5,286046998.0,N
1518049195.3,286046997.7,N
1518049215.2,286046997.0,Y
1518049235.0,286046997.0,P
1518049235.9,286046997.0,P
1518049255.7,286046994.9,P
1518049275.6,286046995.5,Y
1518049295.4,286047000.3,P
1518049315.3,286046999.9,N
1518049335.1,286047001.9,N
1518049355.8,286047002.1,N
1518049375.7,286047001.6,N
1518049395.5,286047001.7,N
1518049415.4,286047001.9,N
1518049435.2,286047001.5,N
1518049455.0,286047000.2,N
1518049455.9,286047000.2,N
1518049475.8,286047002.5,N
1518049495.6,286046998.6,N
1518049515.5,286046998.2,N
1518049535.3,286046998.2,N
1518049555.1,286046999.3,N
1518049575.9,286046998.5,N
1518049595.7,286047001.1,N
1518049615.6,286047001.1,N
1518049635.4,286046998.1,N
1518049655.2,286047001.0,N
1518049675.1,286046998.8,N
1518049676.0,286046998.8,N
1518049695.8,286046998.6,N
1518049715.6,286046998.1,N
1518049735.5,286046998.9,N
1518049755.3,286046998.6,N
1518049775.2,286046998.9,N
1518049795.4,286046998.9,N
1518049815.2,286046998.6,N
1518049835.1,286046998.5,N
1518049836.0,286046998.5,N
1518049855.8,286046999.5,N
1518049875.7,286046999.1,N
1518049895.5,286046998.5,N
1518049915.3,286047000.7,N
1518049935.2,286046998.4,N
1518049955.0,286046998.4,N
1518049955.9,286046998.4,N
1518049975.8,286046998.1,N
1518049995.6,286046998.4,N
1518050015.4,286046997.7,N
1518050035.3,286046997.3,Y
1518050055.1,286046998.7,P
1518050075.9,286046998.5,P
1518050095.7,286046998.7,P
1518050115.5,286046997.0,Y
1518050135.4,286047000.6,P
1518050155.2,286046999.1,N
1518050175.1,286046999.2,N
1518050176.0,286046999.2,N
1518050195.8,286046997.1,Y
1518050215.6,286046999.0,P
1518050235.5,286047000.8,P
1518050255.3,286047000.7,N
1518050275.1,286046999.3,N
1518050295.9,286047001.1,N
1518050315.7,286047001.0,N
1518050335.6,286047002.4,N
1518050355.4,286047002.6,N
1518050375.2,286047001.6,N
1518050395.1,286047001.9,N
1518050396.0,286047001.9,N
1518050415.8,286047002.6,N
1518050435.7,286047002.8,N
1518050455.5,286047000.3,N
1518050475.3,286047002.8,N
1518050495.2,286047002.1,N
1518050515.0,286047004.2,Y
1518050515.9,286047004.2,P
1518050535.8,286047000.2,N
1518050555.6,286047002.2,N
1518050575.4,286047002.8,N
1518050595.3,286047002.7,N
1518050615.1,286047002.1,N
1518050635.9,286047002.1,N
1518050655.7,286047002.0,N
1518050675.5,286047003.9,Y
1518050695.4,286047002.3,P
1518050715.2,286047001.1,P
1518050765.1,286047000.6,E
1518050775.9,286047000.0,N
1518050795.4,286047002.3,P
1518050815.2,286047002.2,N
1518050835.0,286047002.6,N
1518050836.0,286047002.6,N
1518050855.8,286047000.2,N
1518050875.7,286046999.8,N
1518050895.5,286046999.7,N
1518050915.3,286046999.9,N
1518050935.2,286046999.7,N
1518050955.0,286046999.8,N
1518050955.9,286046999.8,N
1518050975.8,286047000.7,N
1518050995.6,286047001.1,N
1518051015.4,286047000.9,N
1518051035.3,286047002.1,N
1518051055.1,286047002.7,N
1518051075.9,286047000.7,N
1518051095.7,286047002.4,N
1518051115.5,286047001.7,N
1518051135.4,286047001.7,N
1518051155.2,286047000.0,N
1518051175.0,286047000.6,N
1518051175.9,286047000.6,N
1518051195.8,286047002.2,N
1518051215.6,286047002.5,N
1518051235.5,286047001.7,N
1518051255.3,286047001.6,N
1518051275.1,286047001.6,N
1518051295.9,286047002.5,N
1518051315.7,286047003.6,Y
1518051335.6,286047001.5,P
1518051355.4,286047002.8,P
1518051375.2,286046999.9,N
1518051395.1,286047002.6,N
1518051396.0,286047002.6,N
1518051415.8,286047001.9,N
1518051435.6,286047002.1,N
1518051455.5,286047002.2,N
1518051475.3,286047004.0,Y
1518051495.2,286047002.5,P
1518051515.9,286046999.9,N
1518051535.7,286047000.0,N
1518051555.6,286047000.7,N
1518051575.4,286047000.5,N
1518051595.3,286046998.5,N
